Regional Weather Roundup
Issued by NWS Northern Indiana

Home | Current Version | Previous Version | Text Only | Print | Product List | Glossary Off
Versions: 1 2 3 4 5 6 7 8 9 10 11 12 13 14 15 16 17 18 19 20 21 22 23 24 25 26 27 28 29 30 31 32 33 34 35 36 37 38 39 40 41 42 43 44 45 46 47 48 49 50

000
ASUS43 KIWX 271800
RWRIWX

KIWX WEATHER ROUNDUP
NATIONAL WEATHER SERVICE NORTHERN INDIANA
200 PM EDT WED JUL 27 2016

NOTE: "FAIR" INDICATES FEW OR NO CLOUDS BELOW 12,000 FEET WITH NO
SIGNIFICANT WEATHER AND/OR OBSTRUCTIONS TO VISIBILITY.

* THESE STATIONS ARE NOT UNDER NWS QUALITY CONTROL. THEY ALSO MAY NOT
  REPORT WEATHER SUCH AS PRECIPITATION OR FOG.

INZ001>027-271900-
NORTHERN INDIANA

CITY           SKY/WX    TMP DP  RH WIND       PRES   REMARKS
GARY*          MOSUNNY   86  72  62 N6        30.02F
KNOX*          SUNNY     82  54  36 CALM      30.02S
SOUTH BEND     SUNNY     84  65  52 VRB3      30.02F
6HR MIN TEMP:  68; 6HR MAX TEMP:  86;

ELKHART*       SUNNY     84  66  54 CALM      30.02F
GOSHEN         SUNNY     87  56  34 E3        30.01F
6HR MIN TEMP:  66; 6HR MAX TEMP:  87;

MONTICELLO*    PTSUNNY   81  64  56 CALM      30.02F
6HR MIN TEMP:  66; 6HR MAX TEMP:  83;

ANGOLA*          N/A     88  64  45 S7        30.02F
FORT WAYNE     MOSUNNY   85  58  39 VRB3      30.02F
6HR MIN TEMP:  66; 6HR MAX TEMP:  87;

PERU/GRISSOM   MOSUNNY   86  64  47 VRB3      30.01F
6HR MIN TEMP:  69; 6HR MAX TEMP:  86;


$$
INZ028>050-271900-
CENTRAL INDIANA

CITY           SKY/WX    TMP DP  RH WIND       PRES   REMARKS
LAFAYETTE      PTSUNNY   83  65  54 N3        30.01F
6HR MIN TEMP:  66; 6HR MAX TEMP:  86;

KOKOMO*        SUNNY     88  63  42 NW5       30.02F
6HR MIN TEMP:  68; 6HR MAX TEMP:  88;

MUNCIE*        SUNNY     87  63  44 NW6       30.02F
6HR MIN TEMP:  70; 6HR MAX TEMP:  87;

INDIANAPOLIS   MOSUNNY   88  65  46 VRB3      30.00F
6HR MIN TEMP:  74; 6HR MAX TEMP:  88;


$$
MIZ043>046-050>051-056>058-064>065-071>073-077>080-271900-
SOUTHWEST LOWER MICHIGAN

CITY           SKY/WX    TMP DP  RH WIND       PRES   REMARKS
BATTLE CREEK   SUNNY     82  62  50 SW7       30.03S
6HR MIN TEMP:  66; 6HR MAX TEMP:  82;

BENTON HARBOR  SUNNY     84  64  50 NW9       30.02S
6HR MIN TEMP:  68; 6HR MAX TEMP:  85;

COLDWATER*     SUNNY     84  60  42 CALM      30.01F
6HR MIN TEMP:  68; 6HR MAX TEMP:  85;

HILLSDALE*     SUNNY     82  60  47 CALM      30.02F
6HR MIN TEMP:  59; 6HR MAX TEMP:  84;

HOLLAND        SUNNY     84  69  60 W9        30.02F
6HR MIN TEMP:  67; 6HR MAX TEMP:  84;

GRAND RAPIDS   PTSUNNY   86  67  52 SW9       30.00F
6HR MIN TEMP:  69; 6HR MAX TEMP:  86;

KALAMAZOO      SUNNY     85  61  44 S8        30.01F
6HR MIN TEMP:  68; 6HR MAX TEMP:  85;

STURGIS*       SUNNY     84  61  45 W3        30.01F
6HR MIN TEMP:  67; 6HR MAX TEMP:  85;

THREE RIVERS*  FAIR      86  60  41 CALM      30.02F
6HR MIN TEMP:  68; 6HR MAX TEMP:  86;


$$
OHZ001>008-015>018-024>025-271900-
NORTHWEST OHIO

CITY           SKY/WX    TMP DP  RH WIND       PRES   REMARKS
DEFIANCE       MOSUNNY   87  63  44 S5        30.01F
6HR MIN TEMP:  69; 6HR MAX TEMP:  88;

FINDLAY        SUNNY     88  57  34 VRB7      30.00F
6HR MIN TEMP:  73; 6HR MAX TEMP:  89;

TOLEDO EXPRESS SUNNY     87  59  38 W6        30.00F
6HR MIN TEMP:  69; 6HR MAX TEMP:  87;

TOLEDO METCALF PTSUNNY   87  60  40 VRB3      30.00F
6HR MIN TEMP:  71; 6HR MAX TEMP:  88;

LIMA           MOSUNNY   87  65  47 VRB5      30.01F
6HR MIN TEMP:  71; 6HR MAX TEMP:  87;


$$
AND FOR LAKE MICHIGAN COASTAL AND OPEN LAKE BUOY OBSERVATIONS

STATION/POSITION TEMP    WIND        PRES    VSBY  WAVE
                 AIR SEA DIR/SP/G                  HT/PER
                 (F)     (DEG/KT/KT) (MB)    (MI)  (FT/S)
MICHIGAN CITY     80     330/  5/  5   N/A
BURNS HARBOR      77     360/  5/  6 1017.3R
SAINT JOSEPH      80     230/  6/  7 1017.6R
SOUTH LAKE BUOY   76 76  260/  4/  4 1015.7          0
4 MI NW BRIDGMAN  76 78  230/  6/  6 1016.4R         0
MICHIGAN CITY     77 78  340/  2/  4   N/A           0

$$
&&



USA.gov is the U.S. government's official web portal to all federal, state and local government web resources and services.